Location: ????????
(54.9045°N, 39.1041°E)
Time: 02:25:12
(UTC+00:00)

Cosmos 2322 Rocket - Pass Details

Date: 14 April 2024
Orbit: 833 x 849 km, 71.0° (Epoch: 25 May)

Event Time Altitude Azimuth Distance (km) Brightness Sun altitude
Exits shadow 00:19:51 17° 262° (W) 1,973 3.7 -15.8°
Maximum altitude 00:23:31 36° 320° (NW) 1,308 3.2 -15.4°
Drops below altitude 10° 00:28:41 10° 26° (NNE) 2,455 5.8 -14.9°
Sets 00:31:21 0° 35° (NE) 3,392 7.0 -14.6°
